Sidney, NE

1:30 AM MDT on May 01, 2017 (GMT -0600)
Sidney Municipal

Weather History for KSNY - August, 2013

Change the Weather History Date:

Sunday, August 25, 2013

  Actual Average Record
Temperature  
Mean Temperature 80 °F 72 °F  
Max Temperature 99 °F 87 °F 101 °F (2011)
Min Temperature 60 °F 57 °F 39 °F (1964)
Degree Days  
Heating Degree Days 0 0  
Month to date heating degree days 1 0  
Since 1 June heating degree days 46 62  
Since 1 July heating degree days 9 3  
Cooling Degree Days 15 7  
Month to date cooling degree days 195 225  
Year to date cooling degree days 666 703  
Since 1 June cooling degree days 633 681  
Growing Degree Days 30 (Base 50)    
Moisture  
Dew Point 49 °F    
Average Humidity 43    
Maximum Humidity 69    
Minimum Humidity 16    
Precipitation  
Precipitation 0.00 in 0.07 in 0.98 in (2005)
Month to date precipitation 0.70 1.86  
Year to date precipitation 8.18 14.76  
Sea Level Pressure  
Sea Level Pressure 29.91 in    
Wind  
Wind Speed 7 mph (SW)    
Max Wind Speed 20 mph    
Max Gust Speed 25 mph    
Visibility 10 miles    
Events      
T = Trace of Precipitation, MM = Missing Value Source: NWS Daily Summary

Daily Weather History Graph

Daily Weather History Graph

Search for Another Location

Airport or City:

Trip Planner

Search our weather history database for the weather conditions in past years. The results will help you decide how hot, cold, wet, or windy it might be!

Date:

Astronomy

Aug. 25, 2013 Rise Set
Actual Time 6:11 AM MDT 7:35 PM MDT
Civil Twilight 5:43 AM MDT 8:03 PM MDT
Nautical Twilight 5:08 AM MDT 8:38 PM MDT
Astronomical Twilight 4:31 AM MDT 9:14 PM MDT
Moon 10:04 PM MDT (8/25) 11:19 AM MDT (8/25)
Length of Visible Light 14h 20m
Length of Day
13h 23m
Waning Gibbous, 75% of the Moon is Illuminated
Aug 25
Waning Gibbous
Aug 28
Last Quarter
Sep 5
New
Sep 12
First Quarter
Sep 19
Full

Hourly Weather History & Observations

Time (MDT) Temp. Dew Point Humidity Pressure Visibility Wind Dir Wind Speed Gust Speed Precip Events Conditions
12:53 AM 64.0 °F 50.0 °F 60% 29.88 in 10.0 mi Calm Calm - N/A   Clear
1:53 AM 68.0 °F 48.9 °F 50% 29.88 in 10.0 mi West 8.1 mph - N/A   Clear
2:53 AM 69.1 °F 50.0 °F 51% 29.87 in 10.0 mi WNW 10.4 mph - N/A   Clear
3:53 AM 70.0 °F 51.1 °F 51% 29.89 in 10.0 mi West 4.6 mph - N/A   Clear
4:53 AM 62.1 °F 50.0 °F 65% 29.91 in 10.0 mi SW 4.6 mph - N/A   Clear
5:53 AM 61.0 °F 50.0 °F 67% 29.93 in 10.0 mi WSW 9.2 mph - N/A   Clear
6:53 AM 66.9 °F 51.1 °F 57% 29.95 in 10.0 mi West 6.9 mph - N/A   Clear
7:53 AM 75.0 °F 51.1 °F 43% 29.95 in 10.0 mi SW 4.6 mph - N/A   Clear
8:53 AM 82.0 °F 48.9 °F 31% 29.94 in 10.0 mi WNW 4.6 mph - N/A   Clear
9:53 AM 87.1 °F 48.9 °F 27% 29.94 in 10.0 mi West 6.9 mph - N/A   Clear
10:53 AM 91.0 °F 46.9 °F 22% 29.94 in 10.0 mi Calm Calm - N/A   Clear
11:53 AM 91.9 °F 46.9 °F 21% 29.94 in 10.0 mi WSW 4.6 mph - N/A   Clear
12:53 PM 93.9 °F 48.0 °F 21% 29.93 in 10.0 mi NNE 5.8 mph - N/A   Clear
1:53 PM 96.1 °F 48.0 °F 19% 29.90 in 10.0 mi South 5.8 mph - N/A   Clear
2:53 PM 98.1 °F 48.9 °F 19% 29.88 in 10.0 mi SE 9.2 mph - N/A   Scattered Clouds
3:53 PM 96.1 °F 46.0 °F 18% 29.87 in 10.0 mi SSE 9.2 mph - N/A   Clear
4:53 PM 97.0 °F 43.0 °F 16% 29.88 in 10.0 mi SSE 13.8 mph 17.3 mph N/A   Clear
5:53 PM 93.0 °F 45.0 °F 19% 29.89 in 10.0 mi South 10.4 mph - N/A   Clear
6:53 PM 91.0 °F 45.0 °F 20% 29.88 in 10.0 mi SSW 5.8 mph - N/A   Clear
7:53 PM 82.9 °F 46.9 °F 28% 29.89 in 10.0 mi South 4.6 mph - N/A   Clear
8:53 PM 80.1 °F 48.0 °F 32% 29.89 in 10.0 mi SE 9.2 mph - N/A   Clear
9:53 PM 82.0 °F 52.0 °F 35% 29.88 in 10.0 mi South 12.7 mph - N/A   Clear
10:53 PM 75.0 °F 55.0 °F 50% 29.92 in 10.0 mi WNW 12.7 mph - N/A   Clear
11:53 PM 70.0 °F 54.0 °F 57% 29.92 in 10.0 mi Calm Calm - N/A   Clear